Wind_Speed
54 54 53 52 52 51 48 44 40 38 38 39 38 37 35 33 30 27 24 23 21 19 18 16 14 13 12 10 9 8 8 7 6 5 5 4 4 5 5 6 7 7 8 8 9 9 10 10 11
55 55 55 55 55 53 49 44 41 40 40 40 39 38 36 34 31 28 26 24 22 20 19 17 15 14 12 11 10 9 8 7 6 6 5 5 5 6 6 7 8 8 9 9 9 10 10 11 11
55 56 56 57 57 54 48 44 42 42 42 42 41 39 38 36 33 30 27 25 23 21 19 18 16 14 13 12 10 9 8 7 7 6 6 6 6 7 7 8 8 9 9 10 10 10 11 11 12
56 57 58 58 58 53 48 45 44 44 44 44 42 41 39 37 34 31 29 27 25 23 21 19 17 15 14 12 11 10 9 8 7 7 7 7 7 8 8 9 9 10 10 11 11 11 11 12 12
57 58 59 59 56 54 50 47 46 46 46 45 44 42 40 38 36 33 30 28 26 24 22 20 18 16 15 13 12 11 10 9 8 8 8 8 8 9 9 10 10 11 11 11 12 12 12 13 13
58 59 61 60 55 53 51 49 48 48 48 47 46 44 42 40 37 35 32 30 28 26 23 21 20 18 16 15 13 12 11 11 10 9 9 9 10 10 11 11 12 12 12 12 13 13 14 14 14
58 59 59 57 55 53 51 50 49 49 49 49 47 46 43 41 39 36 34 32 30 27 25 23 21 19 18 16 15 14 13 12 11 11 11 11 12 12 12 13 13 13 14 14 14 15 15 15 15
57 58 59 58 56 52 49 50 50 50 50 51 50 47 44 42 40 38 36 34 32 30 27 25 23 21 19 18 17 15 15 14 13 13 13 13 14 14 14 14 15 15 15 15 16 16 16 16 17
57 58 59 57 55 51 49 50 51 52 53 52 52 49 46 45 43 40 38 36 34 31 29 27 25 23 22 20 19 17 16 16 15 15 15 15 15 16 16 16 16 17 17 17 17 17 18 18 18
57 57 54 53 52 51 50 51 52 54 55 54 53 51 49 46 44 42 39 37 35 34 31 29 27 26 24 22 21 20 19 18 17 17 17 17 17 17 17 18 18 18 18 18 19 19 19 20 20
56 55 52 52 52 51 52 53 54 55 56 56 54 52 50 48 46 43 41 39 38 36 34 32 30 28 27 25 24 23 21 20 19 19 19 19 19 19 19 20 20 20 20 20 20 20 21 21 22
54 53 52 51 51 51 52 54 55 56 56 56 56 54 52 50 47 45 43 41 40 39 37 35 33 31 29 28 26 25 24 23 22 21 21 21 21 21 21 21 21 21 21 21 21 22 22 23 23
53 53 53 52 51 52 52 53 55 56 56 56 56 55 54 52 49 47 45 43 42 41 39 37 35 34 32 31 29 28 27 26 25 24 24 23 23 22 22 22 23 23 23 23 23 23 24 24 25
51 52 53 53 52 52 52 53 54 54 56 56 55 55 53 52 51 49 47 45 43 42 41 40 38 36 35 34 32 31 30 29 28 27 26 26 25 25 24 24 24 24 24 24 25 25 25 26 27
50 51 53 53 53 52 52 52 52 51 55 56 55 54 53 52 51 49 48 46 45 44 43 42 40 39 37 36 35 34 33 32 30 29 29 28 27 27 26 26 26 26 26 26 26 27 27 28 29
51 52 53 53 52 52 53 51 49 51 53 55 54 54 54 52 51 50 48 47 47 45 44 43 42 41 40 39 38 37 35 34 33 32 31 30 30 29 28 28 28 28 28 28 28 28 29 29 30
51 52 52 52 52 52 52 49 48 50 52 54 54 54 53 52 51 50 49 48 47 47 46 45 44 43 42 41 40 40 38 37 35 34 33 33 32 31 30 30 30 30 29 29 30 30 31 31 32
48 48 48 49 50 51 50 48 49 50 51 52 54 54 52 51 49 50 50 49 48 47 47 46 45 45 45 43 42 42 41 39 38 37 36 35 34 33 32 32 32 32 31 31 32 32 32 33 34
44 45 46 46 48 49 49 48 48 49 50 51 52 53 53 52 49 49 49 49 49 48 47 47 46 46 46 45 44 43 43 42 40 39 39 38 36 35 34 34 34 34 33 33 34 34 34 35 36
41 43 44 44 45 46 46 47 47 48 48 49 49 50 51 52 51 49 49 48 49 48 48 48 47 47 47 47 47 46 45 43 42 41 40 39 38 37 37 36 36 36 36 35 35 36 36 37 38
39 39 41 41 42 43 44 46 46 47 47 47 47 47 48 50 51 50 49 48 48 48 48 49 49 48 48 48 48 48 47 46 44 43 42 41 40 40 39 38 38 38 37 37 37 38 39 39 40
36 36 38 39 40 42 43 44 44 45 45 45 45 45 46 47 48 49 50 49 49 48 48 49 49 48 49 50 50 49 48 47 45 44 43 43 42 42 41 40 40 39 39 39 40 40 41 42 42
32 33 34 37 38 39 41 43 42 42 43 42 42 43 44 45 46 46 47 48 49 49 49 49 49 49 49 50 50 49 49 48 47 45 44 44 44 43 43 42 42 41 41 41 42 42 43 43 44
30 30 31 34 37 38 38 40 39 39 39 40 40 41 42 43 45 45 46 47 48 48 49 49 49 50 50 50 49 49 49 48 48 47 47 46 46 45 44 44 43 43 43 43 43 43 44 45 45
29 28 29 32 36 37 36 38 37 35 36 37 38 39 40 42 43 44 45 46 47 48 48 49 49 50 51 51 51 50 50 50 49 48 48 47 47 46 46 45 45 45 45 45 45 45 45 46 47
28 27 28 30 33 34 35 36 34 33 34 35 37 38 38 40 41 42 44 45 47 48 49 49 50 50 50 51 51 51 51 51 50 49 49 48 47 47 47 47 46 46 47 47 47 46 47 47 47
27 26 25 27 30 31 32 33 32 32 32 34 36 37 37 37 39 40 42 43 45 46 48 49 50 50 51 51 51 51 51 51 51 51 50 50 49 49 48 48 48 48 48 48 48 48 48 48 47
26 25 24 24 26 28 29 29 29 29 31 32 34 35 36 36 38 39 40 41 43 44 46 48 49 50 51 51 51 51 51 51 51 50 50 49 50 50 49 49 49 49 49 49 49 48 48 47 47
23 25 25 24 25 25 26 26 25 26 28 30 32 33 35 36 37 38 39 41 42 43 44 46 47 48 49 49 50 51 51 51 51 51 50 50 50 50 50 49 49 49 49 49 48 48 48 47 46
22 23 24 25 25 25 25 24 24 24 26 27 28 29 32 34 36 38 39 40 41 42 43 44 45 46 47 48 49 49 50 51 51 51 50 50 50 50 49 49 49 48 48 48 47 47 47 46 46
Wind_Direction
224 223 222 221 220 220 219 217 216 215 215 217 219 222 224 225 224 224 222 222 223 224 225 228 231 234 236 239 242 245 247 250 253 260 269 281 294 304 311 316 318 320 321 321 321 322 323 326 327
224 223 222 221 220 219 218 217 216 216 216 218 220 222 224 226 226 225 224 223 224 225 226 228 231 232 234 237 240 244 248 251 254 261 270 282 293 301 305 308 311 314 316 316 318 320 322 323 325
224 223 223 222 221 219 217 217 217 217 217 218 220 222 224 226 226 225 225 225 224 224 224 225 228 230 234 237 240 243 246 250 256 262 270 281 291 298 302 306 308 310 312 313 315 317 318 320 322
224 224 223 223 221 218 216 215 217 218 218 218 220 221 223 226 227 226 226 225 225 224 222 222 225 229 233 237 240 243 246 251 256 262 271 280 289 296 301 304 306 308 309 310 311 313 315 317 317
223 223 223 223 220 217 216 215 216 218 219 219 220 221 223 225 226 227 227 226 226 225 224 224 226 228 232 237 241 245 248 252 258 264 272 279 286 293 299 302 305 307 308 307 307 309 311 312 313
222 223 223 222 219 217 216 216 217 219 220 220 220 221 222 224 225 226 227 227 227 227 226 227 228 229 232 237 241 246 251 255 260 266 271 278 285 292 297 301 304 305 306 305 304 304 306 307 308
223 224 224 222 219 218 216 217 217 219 221 221 221 221 221 223 225 226 227 228 229 229 229 230 231 232 234 237 241 246 251 256 262 267 272 278 285 291 295 298 301 303 304 304 303 302 303 303 304
223 224 223 221 219 217 217 218 217 218 221 222 222 221 221 223 224 226 227 229 230 230 230 231 233 235 236 239 242 246 251 256 262 267 273 278 284 289 293 297 300 301 302 302 302 301 301 301 301
221 223 223 221 220 217 217 218 218 218 219 222 223 222 222 223 224 225 227 229 231 232 232 233 235 237 239 241 243 247 251 256 261 267 271 276 281 286 290 294 297 299 300 301 301 300 299 298 298
220 223 223 222 221 219 218 218 218 218 218 221 223 223 223 224 225 226 227 228 231 232 233 234 236 238 241 243 246 249 252 255 260 265 270 275 279 283 287 290 294 296 297 298 298 298 298 297 296
220 222 221 221 220 218 217 218 218 219 219 221 223 224 223 224 225 227 228 229 230 232 233 234 236 238 241 244 247 250 253 255 259 263 267 272 276 281 285 288 291 293 294 295 296 297 296 296 295
218 219 219 220 219 218 218 218 219 220 220 221 222 223 224 224 225 227 228 230 230 232 234 235 237 239 242 245 247 251 254 256 259 262 266 269 273 278 282 285 288 290 292 293 294 294 294 294 294
218 217 218 218 218 218 218 218 219 220 221 222 223 224 225 225 226 227 228 230 231 232 233 235 237 239 242 245 248 251 253 256 259 262 265 268 271 275 279 282 285 287 289 290 291 292 291 291 291
216 216 217 217 217 218 219 219 219 219 221 222 225 226 226 227 228 228 229 230 231 232 234 235 236 239 241 244 247 250 252 255 258 261 264 267 270 273 276 279 281 283 286 288 288 289 289 289 290
215 215 216 216 217 218 219 220 220 219 221 222 225 226 227 227 228 229 230 230 231 232 234 235 236 238 239 242 244 248 251 254 257 260 263 266 269 272 274 277 279 281 283 285 286 287 288 288 289
215 215 216 216 217 218 220 220 220 221 222 223 225 227 228 228 229 229 230 231 231 232 233 234 236 237 238 240 242 245 249 252 255 258 262 265 268 271 273 275 278 280 282 283 285 286 287 287 288
214 216 216 216 217 218 221 220 220 222 224 224 224 226 227 229 230 230 230 231 232 232 233 233 234 236 237 238 241 244 247 251 254 257 260 263 266 269 271 273 276 279 280 282 283 284 285 286 287
213 214 216 217 218 220 221 220 220 222 225 225 226 226 227 228 229 230 231 231 232 232 233 234 234 235 236 238 240 243 246 248 252 255 258 261 264 266 269 272 275 277 279 280 281 283 284 285 286
212 214 216 217 219 220 221 220 221 222 224 225 226 227 228 228 229 230 231 232 232 233 234 235 235 236 237 238 239 242 245 247 249 253 257 260 262 265 268 270 273 276 278 279 280 281 283 285 286
209 211 213 215 217 219 220 220 221 222 223 225 227 228 229 230 231 232 233 233 234 235 236 236 236 236 236 237 238 240 243 246 248 252 255 258 261 263 265 268 271 274 276 277 278 280 282 284 286
207 209 212 215 217 219 219 221 221 222 224 225 227 229 231 232 233 234 234 235 236 236 236 236 236 237 238 238 239 240 243 245 249 251 254 256 259 261 263 266 269 271 274 275 277 279 281 284 286
205 207 212 214 218 220 221 222 221 223 225 226 227 229 232 233 234 236 236 237 238 238 237 238 238 238 239 240 241 242 243 245 247 250 252 254 257 260 263 266 268 270 272 274 276 279 281 283 285
203 205 211 215 218 220 221 224 222 225 226 226 227 228 230 233 235 236 237 238 239 240 240 239 240 241 241 242 242 243 244 245 246 249 251 254 257 260 263 265 268 269 271 273 275 278 281 283 284
200 203 210 215 219 221 221 225 222 225 227 228 228 229 230 232 234 236 237 239 240 241 242 242 242 242 243 243 244 244 245 246 247 249 252 254 257 259 261 264 266 269 271 274 275 277 280 282 284
199 203 209 215 219 222 222 225 223 224 227 229 231 232 232 234 234 236 237 239 240 240 242 243 243 244 244 245 245 246 247 248 249 250 253 255 257 259 262 264 267 269 272 274 276 278 280 283 285
200 205 212 218 221 223 223 226 226 226 227 229 231 233 235 235 236 237 238 239 240 240 241 242 244 245 245 247 248 248 250 250 250 252 254 255 257 260 262 264 267 269 272 274 276 278 280 283 285
202 205 211 219 223 224 225 227 228 228 229 230 231 233 236 237 238 238 238 239 240 241 242 243 244 245 246 247 248 249 251 251 251 252 254 256 257 259 261 264 267 270 271 273 276 278 280 283 285
206 208 212 218 224 226 225 226 228 228 229 231 233 234 236 238 239 240 240 241 241 242 243 244 245 246 247 248 248 249 250 252 252 254 255 257 258 260 262 265 267 270 272 274 276 278 281 283 284
210 212 216 221 225 226 226 226 227 230 230 231 234 236 237 239 239 240 241 242 243 244 245 246 247 248 249 249 249 250 250 251 252 254 256 257 259 261 263 265 267 269 271 274 276 279 280 282 283
211 212 216 222 226 228 229 227 228 231 231 232 234 237 239 240 241 242 243 243 244 246 247 248 249 249 249 250 251 251 251 251 253 254 256 258 260 262 264 266 268 270 272 275 277 278 279 281 283
Height
5772 5779 5785 5791 5797 5803 5811 5819 5826 5831 5835 5837 5841 5845 5849 5854 5859 5865 5867 5868 5870 5873 5875 5877 5879 5880 5882 5883 5885 5886 5887 5888 5889 5889 5890 5891 5891 5892 5892 5892 5892 5892 5892 5891 5891 5890 5889 5889 5888
5764 5771 5777 5782 5789 5797 5807 5815 5822 5826 5830 5833 5837 5841 5846 5850 5855 5859 5863 5865 5868 5870 5873 5875 5877 5878 5880 5882 5883 5884 5886 5887 5887 5888 5889 5889 5890 5890 5891 5891 5891 5890 5890 5890 5889 5889 5888 5887 5887
5756 5762 5768 5774 5782 5793 5804 5811 5817 5820 5824 5828 5833 5837 5842 5846 5851 5855 5859 5862 5865 5868 5870 5873 5875 5876 5878 5880 5881 5883 5884 5885 5886 5887 5887 5888 5889 5889 5889 5889 5889 5889 5889 5888 5888 5887 5887 5886 5885
5747 5753 5759 5766 5777 5790 5799 5805 5809 5814 5818 5823 5828 5833 5838 5843 5848 5852 5856 5859 5862 5865 5867 5870 5872 5874 5876 5878 5879 5881 5882 5883 5884 5885 5886 5886 5887 5887 5888 5888 5888 5887 5887 5887 5886 5886 5885 5884 5884
5737 5743 5750 5759 5772 5784 5792 5798 5802 5807 5812 5818 5824 5829 5834 5839 5843 5848 5852 5855 5858 5862 5864 5867 5869 5872 5874 5876 5877 5879 5880 5881 5882 5883 5884 5885 5885 5886 5886 5886 5886 5886 5885 5885 5885 5884 5883 5882 5882
5728 5734 5743 5754 5767 5778 5785 5791 5796 5801 5806 5812 5818 5824 5830 5835 5839 5843 5848 5851 5855 5858 5861 5864 5867 5869 5871 5874 5875 5877 5878 5879 5880 5881 5882 5883 5883 5884 5884 5884 5884 5884 5883 5883 5883 5882 5881 5881 5880
5720 5728 5737 5750 5761 5769 5779 5784 5790 5795 5801 5806 5812 5819 5825 5830 5835 5839 5843 5847 5851 5855 5858 5861 5864 5866 5869 5871 5873 5874 5876 5877 5878 5879 5880 5880 5881 5881 5882 5882 5882 5882 5881 5881 5881 5880 5879 5878 5878
5712 5721 5730 5741 5752 5764 5772 5777 5783 5789 5794 5800 5806 5813 5820 5825 5830 5835 5839 5843 5847 5851 5855 5858 5861 5863 5866 5868 5870 5872 5873 5874 5875 5876 5877 5878 5878 5879 5879 5879 5879 5879 5879 5879 5878 5878 5877 5876 5875
5704 5713 5723 5736 5747 5758 5764 5770 5776 5780 5786 5792 5799 5807 5814 5820 5825 5830 5834 5839 5843 5847 5851 5854 5857 5860 5862 5864 5867 5868 5870 5871 5873 5874 5874 5875 5876 5876 5876 5876 5876 5876 5876 5876 5875 5875 5874 5873 5873
5695 5705 5721 5732 5741 5749 5755 5761 5767 5772 5778 5785 5792 5801 5808 5814 5820 5825 5830 5835 5839 5843 5847 5850 5853 5856 5858 5861 5863 5865 5867 5868 5869 5870 5871 5872 5873 5873 5873 5873 5873 5873 5873 5873 5872 5872 5871 5870 5870
5690 5702 5715 5722 5731 5738 5744 5750 5756 5763 5771 5779 5787 5794 5801 5807 5814 5820 5825 5830 5834 5838 5842 5845 5849 5852 5854 5857 5859 5861 5863 5865 5866 5867 5868 5869 5869 5870 5870 5870 5870 5870 5870 5870 5869 5869 5868 5867 5866
5685 5696 5705 5714 5721 5728 5735 5742 5748 5756 5766 5773 5779 5786 5794 5801 5807 5813 5819 5824 5828 5832 5837 5840 5844 5847 5850 5852 5855 5857 5859 5861 5862 5863 5864 5865 5866 5866 5866 5866 5866 5866 5866 5866 5865 5865 5864 5863 5862
5678 5689 5697 5705 5712 5719 5726 5733 5741 5750 5758 5765 5771 5779 5787 5794 5800 5807 5812 5817 5822 5826 5831 5835 5839 5842 5845 5848 5850 5852 5854 5856 5858 5859 5860 5861 5862 5862 5862 5862 5862 5862 5862 5862 5861 5861 5860 5859 5858
5672 5680 5688 5696 5704 5711 5718 5726 5733 5744 5751 5758 5765 5773 5780 5787 5794 5800 5806 5811 5816 5820 5824 5829 5833 5836 5840 5842 5845 5847 5849 5851 5853 5854 5855 5856 5857 5857 5858 5858 5858 5857 5857 5857 5857 5856 5855 5854 5853
5665 5672 5680 5688 5696 5704 5711 5718 5728 5738 5744 5751 5758 5765 5773 5780 5786 5793 5798 5804 5809 5813 5818 5822 5826 5830 5833 5836 5838 5841 5843 5845 5847 5849 5850 5851 5852 5852 5853 5853 5853 5853 5852 5852 5852 5851 5850 5849 5848
5657 5664 5672 5682 5689 5697 5705 5714 5725 5730 5736 5744 5751 5758 5765 5772 5779 5786 5791 5797 5801 5806 5811 5815 5819 5823 5826 5829 5832 5834 5837 5839 5841 5843 5844 5845 5846 5846 5847 5847 5847 5847 5847 5847 5846 5845 5844 5843 5842
5648 5657 5667 5677 5683 5690 5698 5710 5718 5722 5729 5737 5744 5750 5758 5765 5771 5778 5783 5789 5794 5798 5803 5807 5812 5815 5818 5822 5824 5827 5830 5832 5834 5836 5838 5839 5839 5840 5841 5841 5841 5841 5841 5840 5840 5839 5838 5837 5836
5645 5654 5663 5671 5678 5685 5693 5703 5710 5716 5722 5729 5736 5743 5750 5757 5764 5769 5775 5780 5785 5790 5795 5800 5804 5807 5811 5814 5817 5820 5823 5825 5827 5829 5830 5832 5833 5834 5834 5835 5834 5834 5834 5834 5833 5833 5831 5830 5829
5641 5649 5657 5665 5672 5679 5687 5695 5702 5708 5714 5722 5728 5735 5742 5749 5755 5761 5767 5772 5777 5782 5787 5792 5795 5799 5803 5806 5809 5812 5815 5817 5820 5821 5823 5824 5826 5827 5827 5828 5828 5827 5827 5827 5826 5825 5824 5823 5821
5636 5644 5652 5659 5666 5673 5680 5687 5694 5700 5707 5715 5721 5728 5735 5741 5747 5753 5759 5764 5769 5774 5779 5783 5787 5791 5794 5798 5801 5804 5807 5809 5812 5813 5815 5817 5818 5819 5820 5820 5820 5820 5820 5820 5819 5818 5817 5816 5814
5633 5641 5648 5655 5661 5666 5674 5680 5688 5695 5701 5708 5715 5721 5727 5734 5739 5745 5750 5756 5761 5765 5770 5774 5778 5782 5785 5788 5792 5795 5798 5801 5804 5806 5807 5808 5810 5811 5812 5812 5812 5812 5812 5812 5811 5810 5809 5808 5806
5630 5637 5643 5649 5655 5661 5668 5674 5683 5689 5695 5702 5709 5715 5721 5727 5731 5736 5742 5747 5752 5757 5761 5765 5769 5773 5776 5779 5783 5786 5789 5793 5795 5797 5798 5800 5801 5802 5803 5804 5804 5804 5804 5803 5802 5801 5800 5799 5797
5627 5633 5639 5645 5650 5656 5662 5669 5678 5683 5689 5697 5703 5708 5714 5718 5723 5728 5733 5738 5743 5747 5752 5756 5760 5763 5767 5770 5774 5777 5780 5783 5786 5788 5789 5791 5793 5794 5794 5795 5795 5795 5795 5794 5794 5792 5791 5790 5788
5624 5630 5635 5640 5645 5651 5658 5664 5673 5678 5685 5691 5696 5701 5705 5710 5714 5719 5724 5729 5734 5738 5743 5747 5751 5754 5758 5761 5764 5768 5771 5773 5776 5778 5780 5782 5783 5784 5785 5785 5786 5786 5786 5785 5784 5783 5782 5780 5779
5622 5628 5633 5636 5640 5647 5654 5658 5668 5675 5679 5684 5689 5693 5697 5701 5706 5711 5715 5720 5725 5729 5733 5737 5741 5745 5748 5751 5754 5757 5761 5763 5766 5768 5770 5772 5774 5775 5775 5776 5776 5776 5776 5775 5774 5773 5772 5770 5769
5620 5625 5631 5635 5639 5645 5649 5654 5664 5669 5673 5677 5681 5685 5690 5694 5699 5703 5707 5711 5715 5719 5723 5727 5731 5735 5738 5741 5744 5747 5750 5753 5756 5758 5760 5762 5764 5765 5765 5766 5766 5766 5766 5765 5764 5763 5762 5760 5758
5617 5622 5628 5632 5636 5641 5645 5652 5658 5663 5667 5671 5675 5679 5683 5687 5691 5695 5699 5702 5706 5710 5713 5717 5721 5724 5728 5731 5734 5737 5740 5742 5745 5747 5749 5751 5753 5754 5755 5755 5756 5755 5755 5754 5753 5752 5751 5750 5748
5616 5620 5625 5629 5633 5637 5642 5647 5653 5658 5661 5665 5669 5672 5676 5680 5683 5687 5690 5694 5697 5700 5704 5707 5710 5714 5717 5721 5724 5727 5729 5732 5734 5737 5739 5740 5742 5743 5744 5744 5745 5745 5744 5743 5743 5742 5740 5739 5737
5615 5619 5622 5626 5630 5634 5638 5646 5648 5652 5655 5659 5662 5666 5669 5672 5676 5679 5682 5685 5688 5691 5695 5698 5701 5704 5707 5710 5713 5716 5719 5721 5723 5726 5728 5729 5731 5732 5733 5734 5734 5734 5734 5733 5732 5731 5730 5728 5726
5613 5616 5620 5624 5628 5631 5635 5643 5643 5647 5650 5653 5656 5659 5662 5665 5668 5671 5674 5676 5679 5682 5685 5688 5691 5694 5697 5699 5702 5705 5707 5710 5712 5714 5716 5718 5719 5721 5722 5722 5723 5723 5723 5722 5721 5720 5719 5717 5715